Location: ???????
(38.3360°N, 23.6977°E)
Time: 13:40:08
(UTC+00:00)

Cosmos 1428 Rocket - Visible Passes

Search period start: 14 February 2026 00:00
Search period end: 24 February 2026 00:00
Orbit: 946 x 988 km, 82.9° (Epoch: 13 February)

Date Brightness Start Highest point End Pass type
(mag) Time Alt. Az. Time Alt. Az. Time Alt. Az.
21 Feb 7.5 04:19:35 10° NE 04:21:06 11° ENE 04:22:38 10° E visible
21 Feb 6.8 19:38:28 15° NNW 19:38:28 15° NNW 19:39:25 10° N visible
22 Feb 7.0 04:39:57 10° NNE 04:44:22 20° ENE 04:48:48 10° ESE visible
22 Feb 5.9 18:15:03 22° NNE 18:15:03 22° NNE 18:17:07 10° NNE visible
22 Feb 6.7 19:59:22 18° NW 19:59:22 18° NW 20:01:31 10° NNW visible
23 Feb 4.3 18:27:52 10° S 18:34:00 84° E 18:40:08 10° N visible
23 Feb 7.1 20:17:15 10° W 20:19:57 13° WNW 20:22:39 10° NW visible
